• In Hungary
  • List of Countries
  • For 7 days
  • Water Temperature
  • Satellite Maps
  • Weather Map
  • News
  • Weather Widgets
  • user-avatar
    Login

    Hourly Weather Pamporovo

    Today, 12 December, Tuesday

    Time Temperature Precipitation Wind Pressure Humidity
    00:00 -5°C° 0 mm 2 mps 624 mmHg 60%
    01:00 -4°C° 0 mm 2 mps 624 mmHg 61%
    02:00 -5°C° 0 mm 2 mps 624 mmHg 64%
    03:00 -4°C° 0 mm 2 mps 624 mmHg 64%
    04:00 -4°C° 0 mm 2 mps 624 mmHg 65%
    05:00 -4°C° 0 mm 2 mps 624 mmHg 65%
    06:00 -4°C° 0 mm 2 mps 624 mmHg 66%
    07:00 -4°C° 0 mm 2 mps 624 mmHg 67%
    08:00 -4°C° 0 mm 2 mps 625 mmHg 67%
    09:00 -1°C° 0 mm 2 mps 626 mmHg 63%
    10:00 +2°C° 0 mm 2 mps 626 mmHg 58%
    11:00 +4°C° 0 mm 2 mps 627 mmHg 53%
    12:00 +5°C° 0 mm 2 mps 627 mmHg 54%
    13:00 +6°C° 0 mm 2 mps 628 mmHg 54%
    14:00 +6°C° 0 mm 2 mps 628 mmHg 54%
    15:00 +4°C° 0 mm 2 mps 627 mmHg 62%
    16:00 +4°C° 0 mm 1 mps 627 mmHg 69%
    17:00 +2°C° 0 mm 1 mps 626 mmHg 77%
    18:00 +2°C° 0 mm 1 mps 626 mmHg 77%
    19:00 -1°C° 0 mm 2 mps 626 mmHg 77%
    20:00 -1°C° 0 mm 2 mps 626 mmHg 78%
    21:00 -1°C° 0 mm 2 mps 626 mmHg 77%
    22:00 -1°C° 0 mm 2 mps 626 mmHg 76%
    23:00 -1°C° 0 mm 2 mps 626 mmHg 75%

    Tomorrow, 13 December, Wednesday

    Time Temperature Precipitation Wind Pressure Humidity
    00:00 -1°C° 0 mm 2 mps 626 mmHg 75%
    01:00 -1°C° 0 mm 2 mps 626 mmHg 75%
    02:00 -1°C° 0 mm 2 mps 626 mmHg 75%
    03:00 -2°C° 0 mm 2 mps 626 mmHg 75%
    04:00 -2°C° 0 mm 2 mps 625 mmHg 75%
    05:00 -2°C° 0 mm 2 mps 625 mmHg 75%
    06:00 -2°C° 0 mm 2 mps 625 mmHg 75%
    07:00 -2°C° 0 mm 2 mps 625 mmHg 75%
    08:00 -2°C° 0 mm 2 mps 625 mmHg 76%
    09:00 +2°C° 0 mm 1 mps 626 mmHg 70%
    10:00 +4°C° 0 mm 1 mps 627 mmHg 64%
    11:00 +6°C° 0 mm 1 mps 628 mmHg 58%
    12:00 +7°C° 0 mm 1 mps 627 mmHg 56%
    13:00 +7°C° 0 mm 1 mps 627 mmHg 55%
    14:00 +8°C° 0 mm 1 mps 627 mmHg 54%
    15:00 +6°C° 0 mm 1 mps 626 mmHg 62%
    16:00 +5°C° 0 mm 1 mps 625 mmHg 69%
    17:00 +3°C° 0 mm 1 mps 625 mmHg 76%
    18:00 +3°C° 0 mm 1 mps 624 mmHg 76%
    19:00 +3°C° 0 mm 1 mps 624 mmHg 75%
    20:00 +2°C° 0 mm 1 mps 624 mmHg 74%
    21:00 +2°C° 0 mm 1 mps 624 mmHg 73%
    22:00 +2°C° 0 mm 1 mps 624 mmHg 71%
    23:00 +2°C° 0 mm 1 mps 623 mmHg 69%

    Day after tomorrow, 14 December, Thursday

    Time Temperature Precipitation Wind Pressure Humidity
    00:00 +2°C° 0 mm 1 mps 623 mmHg 69%
    01:00 +2°C° 0 mm 1 mps 623 mmHg 70%
    02:00 +2°C° 0 mm 1 mps 623 mmHg 70%
    03:00 +2°C° 0 mm 1 mps 622 mmHg 73%
    04:00 +2°C° 0 mm 1 mps 622 mmHg 75%
    05:00 +1°C° 0 mm 1 mps 622 mmHg 78%
    06:00 +1°C° 0 mm 1 mps 622 mmHg 79%
    07:00 +1°C° 0 mm 1 mps 622 mmHg 80%
    08:00 0°C° 0 mm 1 mps 622 mmHg 81%
    09:00 +2°C° 0 mm 1 mps 623 mmHg 75%
    10:00 +4°C° 0 mm 1 mps 623 mmHg 69%
    11:00 +5°C° 0 mm 1 mps 624 mmHg 63%
    12:00 +6°C° 0 mm 1 mps 624 mmHg 62%
    13:00 +6°C° 0 mm 1 mps 624 mmHg 60%
    14:00 +6°C° 0 mm 1 mps 624 mmHg 59%
    15:00 +5°C° 0 mm 1 mps 623 mmHg 65%
    16:00 +4°C° 0 mm 1 mps 623 mmHg 71%
    17:00 +2°C° 0 mm 1 mps 622 mmHg 77%
    18:00 +2°C° 0 mm 1 mps 622 mmHg 79%
    19:00 +1°C° 0 mm 1 mps 622 mmHg 81%
    20:00 +1°C° 0 mm 1 mps 622 mmHg 83%
    21:00 0°C° 0 mm 1 mps 622 mmHg 83%
    22:00 0°C° 0 mm 1 mps 622 mmHg 84%
    23:00 0°C° 0 mm 1 mps 622 mmHg 84%

    15 December, Friday

    Time Temperature Precipitation Wind Pressure Humidity
    00:00 0°C° 0 mm 1 mps 621 mmHg 83%
    01:00 0°C° 0 mm 1 mps 621 mmHg 82%
    02:00 -1°C° 0 mm 1 mps 621 mmHg 81%
    03:00 -1°C° 0 mm 1 mps 621 mmHg 78%
    04:00 -1°C° 0 mm 1 mps 621 mmHg 74%
    05:00 -1°C° 0 mm 1 mps 621 mmHg 71%
    06:00 -1°C° 0 mm 1 mps 621 mmHg 70%
    07:00 -1°C° 0 mm 1 mps 621 mmHg 70%
    08:00 -1°C° 0 mm 1 mps 621 mmHg 69%
    09:00 +1°C° 0 mm 1 mps 622 mmHg 64%
    10:00 +2°C° 0 mm 2 mps 622 mmHg 59%
    11:00 +4°C° 0 mm 2 mps 623 mmHg 54%
    12:00 +4°C° 0 mm 2 mps 623 mmHg 53%
    13:00 +5°C° 0 mm 2 mps 622 mmHg 52%
    14:00 +6°C° 0 mm 2 mps 622 mmHg 51%
    15:00 +4°C° 0 mm 2 mps 621 mmHg 57%
    16:00 +2°C° 0 mm 2 mps 621 mmHg 64%
    17:00 +1°C° 0 mm 2 mps 620 mmHg 71%
    18:00 +1°C° 0 mm 2 mps 620 mmHg 71%
    19:00 -1°C° 0 mm 2 mps 620 mmHg 71%
    20:00 -1°C° 0 mm 2 mps 620 mmHg 71%
    21:00 -1°C° 0 mm 2 mps 620 mmHg 71%
    22:00 -1°C° 0 mm 2 mps 620 mmHg 72%
    23:00 -1°C° 0 mm 2 mps 620 mmHg 72%

    16 December, Saturday

    Time Temperature Precipitation Wind Pressure Humidity
    00:00 -1°C° 0 mm 2 mps 619 mmHg 73%
    01:00 -1°C° 0 mm 2 mps 619 mmHg 75%
    02:00 -1°C° 0 mm 2 mps 619 mmHg 76%
    03:00 -1°C° 0 mm 2 mps 619 mmHg 79%
    04:00 -1°C° 0 mm 2 mps 618 mmHg 81%
    05:00 -1°C° 0 mm 2 mps 618 mmHg 84%
    06:00 -1°C° 0 mm 2 mps 618 mmHg 84%
    07:00 -1°C° 0 mm 2 mps 619 mmHg 85%
    08:00 -1°C° 0 mm 3 mps 619 mmHg 86%
    09:00 +1°C° 0 mm 3 mps 620 mmHg 81%
    10:00 +2°C° 0 mm 3 mps 620 mmHg 77%
    11:00 +3°C° 0 mm 3 mps 621 mmHg 73%
    12:00 +4°C° 0 mm 3 mps 621 mmHg 73%
    13:00 +4°C° 0 mm 3 mps 620 mmHg 72%
    14:00 +4°C° 0 mm 3 mps 620 mmHg 71%
    15:00 +3°C° 0 mm 3 mps 620 mmHg 75%
    16:00 +3°C° 0 mm 3 mps 620 mmHg 79%
    17:00 +2°C° 0 mm 3 mps 620 mmHg 84%
    18:00 +3°C° 0.1 mm 2 mps 620 mmHg 85%
    19:00 +3°C° 0.1 mm 2 mps 620 mmHg 86%
    20:00 +2°C° 0.1 mm 2 mps 620 mmHg 87%
    21:00 +2°C° 0.2 mm 2 mps 620 mmHg 89%
    22:00 +2°C° 0.2 mm 2 mps 621 mmHg 90%
    23:00 +2°C° 0.2 mm 2 mps 621 mmHg 92%

    17 December, Sunday

    Time Temperature Precipitation Wind Pressure Humidity
    00:00 +2°C° 0.5 mm 2 mps 621 mmHg 92%
    01:00 +1°C° 0.5 mm 2 mps 621 mmHg 93%
    02:00 +1°C° 0.5 mm 2 mps 621 mmHg 93%
    03:00 -1°C° 0.6 mm 2 mps 621 mmHg 93%
    04:00 +1°C° 0.6 mm 1 mps 621 mmHg 93%
    05:00 +1°C° 0.6 mm 1 mps 621 mmHg 92%
    06:00 0°C° 0.5 mm 1 mps 621 mmHg 91%
    07:00 0°C° 0.5 mm 1 mps 622 mmHg 90%
    08:00 0°C° 0.5 mm 1 mps 622 mmHg 89%
    09:00 0°C° 0.4 mm 1 mps 622 mmHg 88%
    10:00 -2°C° 0.4 mm 2 mps 622 mmHg 86%
    11:00 -2°C° 0.4 mm 2 mps 623 mmHg 85%
    12:00 -2°C° 0.8 mm 2 mps 622 mmHg 85%
    13:00 -2°C° 0.8 mm 2 mps 622 mmHg 85%
    14:00 -2°C° 0.8 mm 2 mps 622 mmHg 85%
    15:00 -3°C° 1.1 mm 2 mps 622 mmHg 86%
    16:00 -3°C° 1.1 mm 2 mps 622 mmHg 88%
    17:00 -3°C° 1.1 mm 2 mps 622 mmHg 89%
    18:00 -3°C° 0.7 mm 2 mps 622 mmHg 89%
    19:00 -4°C° 0.7 mm 2 mps 622 mmHg 90%
    20:00 -4°C° 0.7 mm 2 mps 622 mmHg 90%
    21:00 -4°C° 0.2 mm 2 mps 622 mmHg 91%
    22:00 -2°C° 0.2 mm 1 mps 623 mmHg 91%
    23:00 -2°C° 0.2 mm 1 mps 623 mmHg 91%
    Show more